{"data":{"norad_id":56497,"epoch":"2026-09-20T13:10:16.208544Z","epoch_age_seconds":107720,"freshness":"FRESH","line1":"1 56497U 23064BB  26263.54879871  .00000315  00000+0  34185-4 0  9997","line2":"2 56497  69.9994 333.0237 0003662 269.6390  90.4349 14.98330790185425","mean_motion":14.9833079,"eccentricity":0.0003662,"inclination_deg":69.9994,"raan_deg":333.0237,"arg_perigee_deg":269.639,"mean_anomaly_deg":90.4349,"bstar":3.4185e-5,"rev_number":18542,"period_min":96.106948452951,"perigee_km":569.50828819362,"apogee_km":574.59860767769,"semimajor_km":6950.1904479357,"source":"CELESTRAK","updated_at":"2026-09-21T09:00:33.468449Z"}}